When you browse on this site, cookies collect data to enhance your experience and personalize the content and advertising you see.
Visit our Privacy Policy to learn more. By continuing to use the site, you agree to this use of cookies and data.
  • în România
  • Lista ţărilor
  • Pe 7 zile
  • Temperatura apei
  • Hartă satelitară
  • Meteo pe hartă
  • Widget-uri
  • user-avatar
    Intrare

    Meteo pe oră la La-Plata

    Astăzi, 22 Martie, Vineri

    Timp Temperatura Precipitaţii Vânt Presiune Umiditate
    00:00 +15°C° 0 mm 2 m/s 764 mmHg 65%
    01:00 +15°C° 0 mm 2 m/s 764 mmHg 66%
    02:00 +15°C° 0 mm 2 m/s 764 mmHg 69%
    03:00 +15°C° 0 mm 2 m/s 764 mmHg 71%
    04:00 +14°C° 0 mm 3 m/s 764 mmHg 72%
    05:00 +14°C° 0 mm 3 m/s 764 mmHg 74%
    06:00 +16°C° 0 mm 3 m/s 764 mmHg 71%
    07:00 +17°C° 0 mm 3 m/s 764 mmHg 68%
    08:00 +19°C° 0 mm 3 m/s 764 mmHg 63%
    09:00 +20°C° 0 mm 3 m/s 764 mmHg 58%
    10:00 +21°C° 0 mm 3 m/s 764 mmHg 54%
    11:00 +22°C° 0 mm 3 m/s 764 mmHg 49%
    12:00 +23°C° 0 mm 2 m/s 763 mmHg 47%
    13:00 +23°C° 0 mm 2 m/s 763 mmHg 45%
    14:00 +24°C° 0 mm 2 m/s 762 mmHg 44%
    15:00 +23°C° 0 mm 2 m/s 762 mmHg 46%
    16:00 +23°C° 0 mm 2 m/s 762 mmHg 48%
    17:00 +23°C° 0 mm 2 m/s 761 mmHg 49%
    18:00 +20°C° 0 mm 2 m/s 761 mmHg 52%
    19:00 +19°C° 0 mm 2 m/s 762 mmHg 55%
    20:00 +18°C° 0 mm 2 m/s 762 mmHg 58%
    21:00 +18°C° 0 mm 2 m/s 762 mmHg 59%
    22:00 +18°C° 0 mm 2 m/s 762 mmHg 61%
    23:00 +18°C° 0 mm 2 m/s 762 mmHg 62%

    Mâine, 23 Martie, Sâmbătă

    Timp Temperatura Precipitaţii Vânt Presiune Umiditate
    00:00 +18°C° 0 mm 3 m/s 762 mmHg 65%
    01:00 +18°C° 0 mm 3 m/s 762 mmHg 68%
    02:00 +18°C° 0 mm 3 m/s 762 mmHg 70%
    03:00 +18°C° 0 mm 3 m/s 762 mmHg 71%
    04:00 +18°C° 0 mm 3 m/s 761 mmHg 72%
    05:00 +18°C° 0 mm 3 m/s 761 mmHg 73%
    06:00 +19°C° 0 mm 4 m/s 761 mmHg 69%
    07:00 +20°C° 0 mm 4 m/s 762 mmHg 64%
    08:00 +21°C° 0 mm 4 m/s 762 mmHg 60%
    09:00 +22°C° 0 mm 4 m/s 762 mmHg 55%
    10:00 +25°C° 0 mm 4 m/s 761 mmHg 50%
    11:00 +26°C° 0 mm 4 m/s 761 mmHg 45%
    12:00 +27°C° 0 mm 4 m/s 761 mmHg 43%
    13:00 +27°C° 0 mm 4 m/s 760 mmHg 41%
    14:00 +28°C° 0 mm 4 m/s 759 mmHg 38%
    15:00 +27°C° 0 mm 4 m/s 759 mmHg 41%
    16:00 +26°C° 0 mm 4 m/s 759 mmHg 44%
    17:00 +26°C° 0 mm 3 m/s 758 mmHg 47%
    18:00 +25°C° 0 mm 4 m/s 758 mmHg 49%
    19:00 +23°C° 0 mm 4 m/s 758 mmHg 52%
    20:00 +22°C° 0 mm 5 m/s 758 mmHg 55%
    21:00 +22°C° 0 mm 5 m/s 758 mmHg 54%
    22:00 +22°C° 0 mm 6 m/s 758 mmHg 54%
    23:00 +23°C° 0 mm 7 m/s 757 mmHg 54%

    Poimâine, 24 Martie, Duminică

    Timp Temperatura Precipitaţii Vânt Presiune Umiditate
    00:00 +22°C° 0 mm 7 m/s 757 mmHg 54%
    01:00 +22°C° 0 mm 7 m/s 757 mmHg 54%
    02:00 +22°C° 0 mm 7 m/s 757 mmHg 54%
    03:00 +22°C° 0.1 mm 7 m/s 757 mmHg 55%
    04:00 +21°C° 0.1 mm 7 m/s 757 mmHg 57%
    05:00 +21°C° 0.1 mm 6 m/s 757 mmHg 58%
    06:00 +20°C° 0 mm 6 m/s 758 mmHg 63%
    07:00 +19°C° 0 mm 6 m/s 758 mmHg 67%
    08:00 +19°C° 0 mm 6 m/s 759 mmHg 72%
    09:00 +20°C° 0 mm 6 m/s 759 mmHg 62%
    10:00 +21°C° 0 mm 6 m/s 759 mmHg 53%
    11:00 +23°C° 0 mm 6 m/s 759 mmHg 44%
    12:00 +23°C° 0 mm 6 m/s 759 mmHg 44%
    13:00 +24°C° 0 mm 6 m/s 759 mmHg 44%
    14:00 +24°C° 0 mm 6 m/s 759 mmHg 45%
    15:00 +23°C° 0 mm 7 m/s 759 mmHg 48%
    16:00 +22°C° 0 mm 7 m/s 759 mmHg 51%
    17:00 +21°C° 0 mm 7 m/s 759 mmHg 55%
    18:00 +20°C° 0 mm 6 m/s 759 mmHg 58%
    19:00 +17°C° 0 mm 6 m/s 760 mmHg 61%
    20:00 +16°C° 0 mm 6 m/s 760 mmHg 64%
    21:00 +15°C° 0 mm 6 m/s 761 mmHg 68%
    22:00 +15°C° 0 mm 5 m/s 761 mmHg 71%
    23:00 +14°C° 0 mm 5 m/s 761 mmHg 75%

    25 Martie, Luni

    Timp Temperatura Precipitaţii Vânt Presiune Umiditate
    00:00 +13°C° 0 mm 5 m/s 761 mmHg 79%
    01:00 +13°C° 0 mm 5 m/s 761 mmHg 82%
    02:00 +12°C° 0 mm 5 m/s 761 mmHg 86%
    03:00 +12°C° 0 mm 5 m/s 761 mmHg 88%
    04:00 +12°C° 0 mm 5 m/s 761 mmHg 89%
    05:00 +12°C° 0 mm 5 m/s 761 mmHg 91%
    06:00 +13°C° 0 mm 5 m/s 761 mmHg 87%
    07:00 +14°C° 0 mm 5 m/s 762 mmHg 83%
    08:00 +15°C° 0 mm 5 m/s 762 mmHg 79%
    09:00 +17°C° 0 mm 5 m/s 762 mmHg 71%
    10:00 +20°C° 0 mm 4 m/s 762 mmHg 64%
    11:00 +22°C° 0 mm 4 m/s 762 mmHg 57%
    12:00 +22°C° 0.1 mm 4 m/s 762 mmHg 56%
    13:00 +22°C° 0.1 mm 4 m/s 762 mmHg 55%
    14:00 +23°C° 0.1 mm 4 m/s 762 mmHg 55%
    15:00 +22°C° 0.1 mm 4 m/s 762 mmHg 58%
    16:00 +21°C° 0.1 mm 4 m/s 762 mmHg 61%
    17:00 +21°C° 0.1 mm 5 m/s 762 mmHg 65%
    18:00 +19°C° 0 mm 5 m/s 762 mmHg 71%
    19:00 +17°C° 0 mm 5 m/s 763 mmHg 76%
    20:00 +15°C° 0 mm 5 m/s 763 mmHg 82%
    21:00 +15°C° 0 mm 5 m/s 764 mmHg 84%
    22:00 +14°C° 0 mm 5 m/s 764 mmHg 87%
    23:00 +13°C° 0 mm 5 m/s 764 mmHg 89%

    26 Martie, Marţi

    Timp Temperatura Precipitaţii Vânt Presiune Umiditate
    00:00 +13°C° 0 mm 5 m/s 765 mmHg 90%
    01:00 +12°C° 0 mm 5 m/s 765 mmHg 91%
    02:00 +12°C° 0 mm 5 m/s 765 mmHg 92%
    03:00 +12°C° 0 mm 5 m/s 765 mmHg 93%
    04:00 +10°C° 0 mm 5 m/s 765 mmHg 93%
    05:00 +10°C° 0 mm 5 m/s 765 mmHg 94%
    06:00 +12°C° 0 mm 5 m/s 766 mmHg 88%
    07:00 +13°C° 0 mm 5 m/s 766 mmHg 82%
    08:00 +14°C° 0 mm 5 m/s 767 mmHg 77%
    09:00 +16°C° 0 mm 5 m/s 767 mmHg 67%
    10:00 +19°C° 0 mm 5 m/s 767 mmHg 57%
    11:00 +21°C° 0 mm 5 m/s 768 mmHg 48%
    12:00 +21°C° 0 mm 5 m/s 767 mmHg 47%
    13:00 +22°C° 0 mm 5 m/s 767 mmHg 46%
    14:00 +22°C° 0 mm 5 m/s 767 mmHg 44%
    15:00 +21°C° 0 mm 5 m/s 767 mmHg 47%
    16:00 +20°C° 0 mm 5 m/s 767 mmHg 50%
    17:00 +19°C° 0 mm 5 m/s 767 mmHg 53%
    18:00 +17°C° 0 mm 5 m/s 768 mmHg 59%
    19:00 +16°C° 0 mm 5 m/s 768 mmHg 65%
    20:00 +14°C° 0 mm 5 m/s 769 mmHg 71%
    21:00 +14°C° 0 mm 5 m/s 769 mmHg 74%
    22:00 +14°C° 0 mm 5 m/s 769 mmHg 76%
    23:00 +13°C° 0 mm 4 m/s 769 mmHg 79%

    27 Martie, Miercuri

    Timp Temperatura Precipitaţii Vânt Presiune Umiditate
    00:00 +13°C° 0.1 mm 4 m/s 769 mmHg 80%
    01:00 +13°C° 0.1 mm 4 m/s 769 mmHg 81%
    02:00 +13°C° 0.1 mm 4 m/s 769 mmHg 82%
    03:00 +14°C° 0.1 mm 4 m/s 769 mmHg 82%
    04:00 +14°C° 0.1 mm 4 m/s 769 mmHg 82%
    05:00 +14°C° 0.1 mm 3 m/s 769 mmHg 81%
    06:00 +15°C° 0.1 mm 4 m/s 770 mmHg 78%
    07:00 +17°C° 0.1 mm 4 m/s 770 mmHg 74%
    08:00 +18°C° 0.1 mm 4 m/s 770 mmHg 71%
    09:00 +19°C° 0.1 mm 4 m/s 770 mmHg 68%
    10:00 +19°C° 0.1 mm 4 m/s 770 mmHg 65%
    11:00 +20°C° 0.1 mm 4 m/s 770 mmHg 62%
    12:00 +21°C° 0 mm 4 m/s 769 mmHg 58%
    13:00 +22°C° 0 mm 4 m/s 769 mmHg 53%
    14:00 +22°C° 0 mm 4 m/s 768 mmHg 48%
    15:00 +22°C° 0 mm 4 m/s 768 mmHg 51%
    16:00 +22°C° 0 mm 5 m/s 768 mmHg 53%
    17:00 +21°C° 0 mm 5 m/s 767 mmHg 56%
    18:00 +20°C° 0 mm 5 m/s 768 mmHg 62%
    19:00 +19°C° 0 mm 5 m/s 768 mmHg 68%
    20:00 +17°C° 0 mm 5 m/s 768 mmHg 74%
    21:00 +17°C° 0 mm 6 m/s 768 mmHg 73%
    22:00 +19°C° 0 mm 6 m/s 768 mmHg 72%
    23:00 +18°C° 0 mm 7 m/s 768 mmHg 71%
    Arată mai mult